Vertical_Velocity
-0 -1 -1 -1 -1 -1 -2 -2 -2 -2 -2 -2 -2 -1 0 1 1 1 2 2 1 2 3 4 4 4 2 1 1 1 1 0 -0 -0 -0 -0 0 1 1 1 1 2 1 1 -0 -1 -1 -1 -1 -0 -0 -0 -0 -0 -0 -0 -0 0 0 0 -0 -0 -0 -0 -0 -1 -0 -0 -0
-1 -0 1 1 0 -0 -1 -2 -2 -3 -3 -2 -1 -1 -0 0 1 1 1 2 2 3 3 3 4 3 2 2 1 1 1 0 -0 -0 -1 -0 0 0 1 1 2 1 1 0 -0 -1 -1 -1 -1 -0 -0 -0 -0 0 -0 -0 0 0 0 -0 -0 -0 -0 -0 -0 -0 -0 -0 -0
0 1 1 1 0 -1 -2 -2 -2 -2 -2 -1 -0 0 0 -0 -0 0 1 2 3 2 2 1 2 2 2 2 2 1 1 0 -0 -1 -1 -1 -0 0 1 1 1 1 1 0 -0 -1 -1 -1 -1 -0 -0 -0 -0 0 0 0 0 0 0 -0 -0 -0 -0 -0 -0 -0 -0 0 -0
2 2 1 0 -0 -1 -1 -1 -1 -0 0 1 1 0 -0 -0 -0 -0 1 1 1 0 -0 1 2 2 2 2 2 1 1 0 -1 -1 -1 -1 -1 -1 -0 1 1 1 1 -0 -0 -1 -1 -1 -0 -0 -0 0 0 0 0 0 0 0 -0 -0 -1 -0 -0 -0 -0 -0 0 0 0
2 1 1 1 1 1 2 2 2 2 1 1 1 0 -0 -1 -1 -0 -0 -1 -1 -0 1 2 1 1 1 1 1 1 1 0 -1 -1 -2 -2 -1 -1 -0 0 1 1 0 -0 -0 -0 -1 -1 -0 -0 0 0 0 0 -0 -0 -0 -0 -0 -1 -1 -0 -0 0 -0 0 0 1 0
2 2 2 3 3 3 3 3 3 3 2 2 0 -1 -2 -1 -1 -1 -1 -2 -0 1 2 1 0 0 0 0 0 1 1 1 -0 -1 -1 -1 -1 -1 -0 0 0 0 -0 -0 -0 -1 -1 -1 -0 -0 -0 -0 -0 -0 -0 -1 -0 -0 -0 -1 -0 -0 0 0 0 0 0 1 1
2 3 3 2 3 3 3 4 4 4 3 1 -1 -2 -2 -2 -1 -1 -1 0 2 2 1 0 -0 -0 -0 0 1 1 1 1 1 -0 -1 -1 -1 -1 -0 0 0 -0 -0 -0 -0 -0 -0 -0 -0 -0 -0 -0 -0 -0 -1 -1 -0 -0 -0 -0 -0 0 0 0 0 0 0 1 1
2 2 1 2 2 3 3 4 4 4 2 0 -1 -2 -2 -0 -0 0 0 1 0 0 0 0 -0 0 1 1 1 1 1 1 1 1 0 -0 -0 -0 0 1 0 -0 -0 -0 -0 -0 -0 -0 -0 -0 -0 -0 -0 -0 -0 -1 -0 -0 0 0 0 0 1 1 1 1 1 1 1
-0 -0 0 1 1 1 2 3 4 3 2 -0 -0 -0 1 1 1 0 -0 -1 -0 1 1 0 0 0 1 0 1 1 1 1 1 1 1 1 0 0 0 1 1 1 0 -0 -0 0 0 0 0 0 0 0 0 -0 -0 -0 -0 0 0 1 1 1 1 1 1 1 1 1 1
-1 -1 0 -0 -0 0 1 2 2 2 1 -0 0 1 2 1 0 -0 -0 -0 1 1 0 -0 -0 -0 -0 -0 0 1 1 1 1 2 1 1 1 1 1 1 1 1 1 0 0 0 1 1 1 1 1 0 0 0 -0 -0 0 0 1 0 0 0 1 1 1 1 1 1 1
1 1 1 0 1 2 2 1 0 0 0 -0 0 1 1 0 -0 -0 1 2 1 -0 -1 -0 0 -0 -0 -0 -0 0 1 1 1 1 1 1 1 1 1 1 1 1 1 1 1 1 1 1 1 1 1 1 1 0 0 0 0 0 0 0 0 0 1 1 1 1 1 1 1
4 4 4 3 4 4 3 1 -0 -0 -0 -1 -0 0 0 -0 0 1 2 1 -1 -1 -1 1 1 0 -0 -0 -0 0 1 1 1 1 1 1 1 1 1 1 1 1 1 1 1 0 0 0 1 1 1 1 1 1 0 0 0 0 0 0 0 0 1 1 1 1 1 1 1
6 6 5 4 5 4 3 1 0 -0 -1 -2 -1 -0 0 0 1 1 1 -1 -1 -1 0 1 1 0 -0 -0 0 1 1 1 1 1 1 1 1 0 0 0 0 1 1 1 0 0 0 0 0 1 1 1 1 1 0 0 0 0 0 0 0 1 1 1 1 1 2 2 1
5 4 4 4 4 4 2 1 -0 -1 -1 -2 -1 -0 1 1 1 1 -0 -1 -1 -0 1 1 0 -0 -0 -0 0 1 1 1 1 1 1 0 0 -0 -0 -0 -0 0 0 1 0 -0 -0 -0 -0 0 0 1 0 0 0 0 0 0 0 0 1 1 1 1 1 1 1 1 1
4 3 3 4 3 2 1 0 -0 -1 -1 -1 -1 1 2 1 1 1 0 -1 -0 0 1 0 -0 -0 0 0 1 1 1 1 1 1 0 -0 -0 -0 -0 -0 -0 -0 0 0 0 -0 -0 -0 -0 -0 0 0 0 0 0 0 0 0 0 0 1 1 2 1 1 1 1 2 2
3 4 4 5 3 2 1 0 0 -0 -0 -1 1 2 2 1 1 1 1 -0 -0 0 0 -1 -1 -0 1 0 0 1 1 1 0 -0 -0 -1 -1 -0 -0 -0 -0 0 0 1 0 0 0 0 0 -0 -0 -0 -0 -0 -0 0 0 0 0 1 1 1 1 1 1 1 1 2 2
3 4 5 5 3 2 1 1 1 1 1 1 3 4 3 2 2 1 1 -0 0 -0 -0 -1 0 1 1 0 -0 -0 -0 -0 -0 -1 -1 -0 -0 0 0 0 1 1 1 1 1 1 1 1 1 0 0 -0 -0 -0 -0 0 0 0 0 1 1 1 1 1 1 1 1 1 1
2 3 5 4 3 2 2 2 2 2 2 3 4 5 4 4 3 2 1 1 1 -0 -0 0 1 1 1 -0 -0 -0 -0 -1 -1 -1 -0 0 1 1 1 1 2 2 1 1 1 1 1 2 1 1 0 0 -0 -0 0 0 0 1 1 1 1 1 1 1 1 1 1 1 1
1 2 3 2 2 2 3 4 3 3 4 5 5 5 4 4 3 3 2 1 1 1 1 2 2 1 0 -0 -0 -0 -0 -1 -0 -0 1 1 1 1 1 1 2 2 1 1 1 1 2 2 2 1 1 0 0 0 0 0 1 1 1 1 1 1 1 1 1 0 0 0 1
-0 -0 0 1 2 3 4 4 4 5 5 6 5 4 4 3 3 3 2 1 2 2 3 2 1 1 0 0 0 -0 -0 0 1 1 1 1 1 1 1 1 1 1 1 1 1 1 1 2 2 2 1 1 0 0 0 0 1 1 1 1 1 1 1 1 0 -0 -0 -0 0
-2 -1 -1 1 2 3 3 4 5 5 5 5 4 3 3 3 3 2 2 3 4 4 3 1 0 0 0 0 0 0 0 2 2 1 1 1 1 1 1 2 1 1 1 1 0 1 1 1 2 2 2 1 1 0 0 0 0 0 0 1 1 1 1 0 -0 -0 -1 -0 -0
-2 -0 1 2 2 2 3 4 4 4 3 2 2 3 3 3 2 3 4 6 5 3 1 -0 0 0 0 1 1 1 2 2 2 2 2 2 1 1 2 2 1 0 -0 -0 -0 0 1 1 2 2 2 1 1 1 0 0 0 0 0 0 1 1 0 0 -0 -0 -0 -0 -0
-1 0 1 1 1 1 2 3 3 2 2 1 2 2 3 2 3 4 6 5 3 1 0 0 1 1 1 1 2 2 2 2 1 1 1 1 2 2 2 1 0 -0 -1 -1 -0 0 0 1 1 1 1 1 1 1 1 0 -0 -0 -0 0 0 0 0 -0 -0 -0 -0 -0 -0
-1 -0 -0 0 0 1 1 1 1 1 0 1 2 3 3 3 4 5 4 3 2 1 1 2 2 2 2 2 2 2 1 0 -0 0 1 1 1 1 1 1 -0 -1 -1 -0 0 0 0 0 1 1 1 1 1 1 1 0 0 -0 0 0 0 0 -0 -0 -0 -0 -0 -0 -0
-1 -1 -1 -1 -1 -0 0 0 -0 -1 -0 2 3 4 3 3 4 4 3 2 2 2 2 3 3 3 3 2 1 1 -0 -1 -1 -1 -0 1 1 1 1 1 -0 -0 -0 0 0 0 0 0 1 1 1 1 1 1 1 0 0 0 0 0 0 0 -0 -0 -0 -0 0 0 0
-1 -1 -2 -2 -1 -1 -1 -1 -1 -0 1 3 3 3 2 2 3 3 3 2 2 3 4 4 3 3 2 2 1 0 -0 -1 -1 -1 -1 -0 1 1 0 -0 -0 -0 0 0 1 1 1 1 1 1 1 1 1 1 0 0 1 1 1 1 1 0 -0 -0 -0 0 1 1 1
-1 -2 -2 -1 -1 -1 -2 -2 -0 0 1 1 1 1 2 3 4 3 2 1 3 4 4 3 2 2 2 2 1 -0 -1 -1 -0 -0 -1 -0 -0 -0 -0 -0 -0 -0 0 1 2 2 1 1 1 1 1 1 1 1 1 1 1 1 1 1 0 -0 -0 -0 0 1 1 1 1
-1 -2 -1 -1 -2 -2 -2 -0 -0 -1 -1 -0 1 2 3 4 3 2 1 2 3 4 3 1 2 2 3 1 -1 -1 0 1 1 1 0 -0 -0 -1 -1 -1 -1 -0 1 2 3 2 2 1 1 1 1 1 1 1 1 1 1 1 0 0 -0 -0 -0 0 1 1 1 1 1
-1 -0 -0 -1 -2 -2 -1 -1 -2 -2 -1 1 2 3 3 2 1 1 1 2 2 2 1 1 3 3 1 -2 -1 1 3 3 2 2 1 0 -1 -2 -2 -1 -1 -0 1 3 2 2 2 2 1 1 1 1 1 1 1 1 1 0 -0 -0 -0 0 0 1 1 1 1 1 1
0 0 -0 -2 -2 -2 -2 -2 -2 -1 1 2 2 1 1 -0 -1 -1 -0 1 0 1 2 4 4 2 -1 -2 1 2 3 2 2 2 1 -1 -1 -2 -1 -1 -1 0 1 2 2 2 2 2 2 2 1 1 1 1 1 1 0 -0 -0 -0 0 0 1 1 1 1 1 1 1
1 0 -0 -1 -2 -2 -2 -1 -0 1 1 1 1 -0 -1 -2 -2 -2 -1 1 2 4 5 6 2 -0 -1 0 2 1 1 1 2 2 0 -1 -0 -0 0 1 0 1 1 2 2 1 2 2 2 2 2 1 0 -0 -0 1 0 -0 -0 -0 0 1 1 1 1 1 1 1 1
0 -0 -1 -1 -2 -2 -1 0 1 1 1 0 -0 -1 -2 -3 -2 -1 1 2 4 4 4 2 -0 -1 -0 1 0 -0 -0 1 1 0 0 1 1 2 2 2 1 1 1 2 1 1 1 2 2 2 2 2 -0 -1 -1 1 1 0 -0 -0 -0 0 1 1 1 1 1 1 1
-0 -1 -1 -1 -2 -1 -0 1 1 1 0 0 -1 -1 -2 -2 -1 1 1 2 2 1 0 -0 0 1 1 1 0 -0 -0 0 1 1 1 2 2 2 2 1 1 1 2 2 2 1 1 1 2 2 2 2 0 -1 -1 -1 -0 -0 -0 -0 -0 0 0 1 1 1 1 1 1
1 -0 -1 -2 -1 -0 1 1 1 1 -0 -1 -2 -2 -1 -0 -0 -0 -0 -1 -0 0 1 1 3 3 4 3 2 1 0 1 1 1 1 1 1 1 0 -0 0 2 3 3 2 2 2 2 2 2 2 2 0 -1 -3 -2 -2 -1 -0 -0 0 0 1 1 1 1 1 1 1
3 1 -1 -2 -0 1 2 2 1 1 -0 -1 -2 -2 -1 -0 -1 -1 -1 0 1 1 1 2 3 4 3 2 1 0 -1 -1 -0 0 1 2 1 0 -1 -1 1 3 4 4 4 3 3 2 2 2 2 2 -0 -2 -3 -4 -4 -2 -1 1 1 1 1 1 1 1 2 2 1
5 3 1 -0 1 2 2 2 2 1 -0 -1 -1 -1 -1 -1 -1 -0 1 3 2 1 0 1 3 2 0 -3 -2 -2 -1 -1 -0 0 1 2 1 -0 -1 -0 2 4 5 5 5 4 4 3 3 3 2 1 -1 -2 -3 -4 -4 -3 -1 -0 1 1 2 2 2 2 2 2 1
5 4 3 1 1 2 2 2 2 0 -1 -1 -0 0 0 0 0 1 2 2 0 -1 -1 1 1 -0 -2 -4 -4 -3 -1 2 2 1 1 1 0 -0 -0 0 2 4 5 6 6 5 5 4 4 3 2 -0 -2 -2 -2 -3 -4 -3 -2 -1 0 1 3 3 2 2 2 1 1
5 5 4 2 2 2 2 2 1 -1 -2 -1 1 2 2 1 1 1 1 1 -1 -2 -1 0 0 -0 -1 -0 -0 -0 0 2 1 1 -0 -0 -0 -0 0 1 2 4 6 6 6 6 5 5 4 3 1 -1 -2 -2 -2 -2 -3 -3 -2 -1 0 1 2 2 1 1 1 1 1
4 4 3 2 2 2 2 1 -1 -2 -1 0 2 2 1 1 0 0 1 0 -0 -1 -1 -0 -0 1 3 6 5 2 1 0 0 -0 -1 -1 -1 0 1 1 2 4 5 7 6 6 5 5 4 3 1 -0 -1 -1 -1 -1 -2 -2 -2 -1 -0 0 1 1 0 0 0 1 1
2 3 3 2 2 2 1 -0 -2 -1 -0 2 2 2 1 1 1 2 2 1 0 -0 -0 -1 0 2 4 6 4 3 1 1 0 -0 -1 -1 -0 1 1 1 1 3 4 6 6 5 5 4 4 3 2 0 -1 -1 -1 -1 -1 -2 -2 -1 -1 -0 -1 -1 -0 -0 -0 0 1
1 2 2 1 1 1 1 -0 -1 -0 1 2 1 1 2 4 3 2 1 0 -0 -0 -0 -0 1 2 3 3 2 2 2 1 0 -0 -1 -0 -0 -0 -0 0 1 2 3 4 5 5 4 4 3 3 2 0 -0 -1 -1 -1 -1 -2 -2 -2 -1 -1 -1 -1 -1 -1 -0 0 1
Height
1460 1461 1461 1462 1462 1463 1463 1464 1464 1465 1466 1467 1467 1468 1469 1469 1470 1471 1472 1472 1473 1474 1474 1475 1475 1476 1476 1476 1477 1477 1478 1478 1478 1479 1479 1480 1480 1481 1481 1482 1482 1482 1483 1483 1483 1483 1484 1484 1484 1485 1485 1486 1486 1487 1487 1487 1488 1488 1489 1489 1489 1489 1490 1490 1490 1491 1491 1491 1492
1459 1459 1460 1460 1461 1461 1462 1462 1463 1464 1464 1465 1466 1466 1467 1468 1469 1469 1470 1471 1472 1472 1473 1474 1474 1475 1475 1475 1476 1476 1477 1477 1477 1478 1478 1479 1479 1479 1480 1480 1481 1481 1481 1482 1482 1482 1483 1483 1484 1484 1484 1485 1485 1485 1486 1486 1487 1487 1488 1488 1488 1489 1489 1489 1489 1490 1490 1490 1491
1458 1459 1459 1459 1459 1460 1460 1461 1461 1462 1463 1464 1464 1465 1465 1466 1467 1468 1469 1469 1470 1471 1472 1472 1473 1474 1474 1474 1475 1475 1475 1476 1476 1476 1477 1477 1478 1478 1479 1479 1479 1480 1480 1480 1481 1481 1481 1482 1482 1483 1483 1484 1484 1484 1485 1485 1486 1486 1486 1487 1487 1487 1488 1488 1488 1489 1489 1489 1489
1457 1457 1458 1458 1458 1459 1459 1460 1460 1461 1461 1462 1463 1463 1464 1464 1465 1466 1467 1468 1469 1470 1470 1471 1472 1472 1473 1473 1474 1474 1474 1475 1475 1475 1476 1476 1477 1477 1478 1478 1478 1479 1479 1479 1479 1480 1480 1481 1481 1481 1482 1482 1483 1483 1484 1484 1484 1485 1485 1485 1486 1486 1486 1487 1487 1487 1488 1488 1489
1455 1456 1456 1457 1457 1458 1458 1459 1459 1460 1460 1461 1461 1462 1462 1463 1464 1465 1466 1466 1467 1468 1469 1470 1470 1471 1471 1472 1472 1473 1473 1474 1474 1474 1474 1475 1475 1476 1476 1477 1477 1477 1478 1478 1478 1479 1479 1479 1480 1480 1481 1481 1481 1482 1482 1483 1483 1484 1484 1484 1484 1485 1485 1485 1486 1486 1486 1487 1487
1454 1454 1455 1455 1456 1457 1457 1458 1458 1459 1459 1460 1460 1460 1461 1461 1462 1463 1464 1465 1466 1467 1467 1468 1469 1469 1470 1470 1471 1471 1472 1472 1473 1473 1474 1474 1474 1475 1475 1475 1476 1476 1476 1477 1477 1477 1478 1478 1479 1479 1479 1480 1480 1480 1481 1481 1482 1482 1482 1483 1483 1484 1484 1484 1484 1485 1485 1485 1486
1453 1454 1454 1454 1455 1456 1456 1457 1457 1458 1458 1458 1459 1459 1459 1460 1461 1461 1462 1463 1464 1465 1465 1466 1467 1468 1469 1469 1469 1470 1470 1471 1471 1472 1472 1473 1473 1473 1474 1474 1474 1475 1475 1475 1476 1476 1476 1477 1477 1478 1478 1479 1479 1479 1479 1480 1480 1480 1481 1481 1482 1482 1482 1483 1483 1484 1484 1484 1484
1452 1452 1453 1453 1454 1454 1455 1456 1456 1457 1457 1457 1457 1458 1458 1459 1459 1460 1461 1462 1462 1463 1464 1465 1465 1466 1467 1467 1468 1469 1469 1469 1470 1470 1471 1471 1471 1472 1472 1473 1473 1473 1474 1474 1474 1475 1475 1475 1476 1476 1477 1477 1477 1478 1478 1479 1479 1479 1479 1480 1480 1481 1481 1481 1482 1482 1483 1483 1483
1451 1451 1452 1452 1453 1453 1454 1454 1455 1455 1455 1455 1456 1457 1457 1458 1458 1459 1459 1460 1461 1462 1462 1463 1464 1464 1465 1466 1466 1467 1467 1468 1468 1469 1469 1469 1469 1470 1470 1471 1471 1472 1472 1473 1473 1473 1474 1474 1474 1474 1475 1475 1476 1476 1476 1477 1477 1478 1478 1479 1479 1479 1479 1480 1480 1481 1481 1481 1482
1450 1450 1451 1451 1452 1452 1453 1453 1454 1454 1454 1454 1455 1455 1456 1456 1457 1457 1458 1458 1459 1460 1460 1461 1462 1463 1463 1464 1464 1465 1465 1466 1466 1466 1467 1467 1468 1468 1469 1469 1470 1470 1471 1471 1471 1472 1472 1472 1473 1473 1474 1474 1474 1474 1475 1475 1476 1476 1477 1477 1477 1478 1478 1479 1479 1479 1480 1480 1480
1449 1449 1450 1450 1451 1451 1452 1452 1452 1452 1452 1453 1453 1454 1454 1454 1455 1455 1456 1457 1457 1458 1458 1459 1460 1461 1461 1462 1462 1463 1463 1464 1464 1464 1465 1465 1466 1466 1467 1468 1468 1469 1469 1469 1470 1470 1470 1471 1471 1472 1472 1472 1473 1473 1473 1474 1474 1474 1475 1475 1476 1476 1477 1477 1478 1478 1478 1479 1479
1447 1448 1449 1449 1449 1450 1450 1450 1450 1450 1450 1451 1451 1452 1452 1453 1453 1454 1454 1454 1455 1455 1456 1457 1458 1459 1459 1460 1460 1461 1461 1462 1462 1463 1463 1464 1464 1465 1465 1466 1466 1467 1467 1468 1468 1468 1469 1469 1469 1470 1470 1471 1471 1471 1472 1472 1473 1473 1474 1474 1474 1475 1475 1476 1476 1477 1477 1477 1478
1446 1446 1447 1447 1448 1448 1448 1448 1448 1448 1448 1449 1449 1449 1450 1451 1451 1452 1452 1452 1453 1454 1454 1455 1456 1456 1457 1458 1458 1459 1459 1460 1460 1461 1461 1462 1462 1463 1464 1464 1464 1465 1465 1466 1466 1467 1467 1467 1468 1469 1469 1469 1469 1470 1470 1471 1471 1472 1472 1473 1473 1473 1474 1474 1475 1475 1475 1476 1476
1443 1444 1444 1444 1445 1445 1445 1445 1445 1445 1446 1446 1447 1447 1448 1449 1449 1449 1450 1450 1451 1451 1452 1453 1454 1454 1455 1456 1456 1457 1457 1458 1459 1459 1459 1460 1461 1461 1462 1462 1463 1463 1464 1464 1465 1465 1465 1466 1466 1467 1467 1468 1468 1468 1469 1469 1469 1470 1470 1471 1471 1472 1472 1473 1473 1474 1474 1474 1474
1439 1440 1441 1442 1442 1442 1443 1443 1443 1443 1443 1444 1444 1445 1445 1446 1447 1447 1448 1448 1449 1449 1450 1451 1451 1452 1453 1454 1454 1455 1455 1456 1457 1457 1458 1458 1459 1459 1460 1461 1461 1462 1462 1463 1463 1464 1464 1464 1465 1465 1466 1466 1466 1467 1467 1468 1468 1469 1469 1469 1470 1470 1471 1471 1471 1472 1472 1472 1473
1436 1437 1437 1438 1439 1439 1439 1440 1440 1440 1440 1441 1442 1442 1443 1444 1444 1445 1445 1446 1446 1447 1448 1448 1449 1450 1451 1451 1452 1453 1454 1454 1455 1455 1456 1457 1457 1458 1459 1459 1460 1460 1461 1461 1462 1462 1463 1463 1463 1464 1464 1464 1465 1465 1465 1466 1466 1467 1467 1468 1468 1469 1469 1469 1469 1470 1470 1471 1471
1433 1433 1434 1434 1435 1436 1436 1437 1437 1438 1438 1439 1439 1440 1440 1441 1442 1443 1443 1444 1444 1445 1445 1446 1447 1448 1449 1449 1450 1451 1451 1452 1453 1453 1454 1455 1455 1456 1457 1458 1458 1459 1459 1459 1460 1460 1461 1461 1462 1462 1462 1463 1463 1463 1464 1464 1464 1465 1465 1466 1466 1467 1467 1467 1468 1468 1469 1469 1469
1430 1430 1431 1431 1432 1433 1434 1434 1435 1435 1436 1436 1437 1438 1438 1439 1439 1440 1441 1441 1442 1443 1443 1444 1445 1445 1446 1447 1448 1449 1449 1450 1450 1451 1452 1453 1454 1454 1455 1456 1456 1457 1458 1458 1458 1459 1459 1460 1460 1460 1460 1461 1461 1461 1462 1462 1463 1463 1464 1464 1464 1465 1465 1465 1466 1466 1467 1467 1468
1427 1428 1428 1429 1429 1430 1431 1431 1432 1433 1434 1434 1435 1435 1436 1437 1437 1438 1439 1439 1440 1440 1441 1442 1443 1443 1444 1445 1445 1446 1447 1448 1449 1449 1450 1451 1452 1453 1453 1454 1454 1455 1455 1456 1456 1457 1458 1458 1458 1459 1459 1459 1459 1459 1460 1460 1461 1461 1462 1462 1463 1463 1464 1464 1464 1465 1465 1466 1466
1425 1425 1425 1426 1427 1427 1428 1429 1430 1430 1431 1432 1433 1433 1434 1434 1435 1436 1436 1437 1438 1438 1439 1440 1440 1441 1442 1443 1443 1444 1445 1445 1446 1447 1448 1449 1450 1450 1451 1452 1453 1453 1454 1454 1454 1455 1455 1456 1456 1457 1457 1457 1457 1458 1458 1459 1459 1459 1460 1461 1461 1461 1462 1462 1463 1463 1464 1464 1465
1423 1423 1423 1424 1424 1425 1425 1426 1427 1428 1429 1429 1430 1431 1431 1432 1433 1433 1434 1435 1436 1436 1437 1437 1438 1439 1439 1440 1441 1442 1443 1444 1444 1445 1446 1447 1448 1448 1449 1450 1450 1451 1451 1452 1453 1453 1454 1454 1454 1455 1455 1455 1456 1456 1456 1457 1457 1458 1458 1459 1459 1460 1460 1461 1461 1462 1462 1463 1463
1420 1420 1421 1421 1422 1422 1423 1424 1424 1425 1426 1427 1428 1428 1429 1429 1430 1431 1432 1433 1433 1434 1434 1435 1436 1436 1437 1438 1439 1440 1440 1441 1442 1443 1444 1445 1445 1446 1447 1448 1448 1449 1449 1450 1450 1451 1451 1452 1452 1453 1453 1454 1454 1454 1455 1455 1455 1456 1457 1457 1458 1458 1459 1459 1460 1460 1461 1461 1462
1418 1418 1419 1419 1419 1419 1420 1421 1422 1422 1423 1424 1425 1425 1426 1427 1428 1429 1429 1430 1431 1431 1432 1433 1433 1434 1435 1436 1437 1438 1438 1439 1440 1440 1441 1442 1443 1444 1444 1445 1446 1446 1447 1448 1448 1449 1449 1450 1450 1451 1451 1452 1452 1453 1453 1453 1454 1454 1455 1455 1456 1456 1457 1458 1458 1459 1459 1460 1460
1416 1416 1416 1416 1416 1417 1417 1418 1419 1419 1420 1421 1422 1423 1424 1424 1425 1426 1427 1427 1428 1429 1429 1430 1431 1432 1433 1434 1434 1435 1436 1436 1437 1438 1439 1440 1441 1441 1442 1443 1443 1444 1445 1445 1446 1447 1447 1448 1448 1449 1449 1450 1450 1451 1451 1452 1452 1453 1453 1454 1454 1455 1455 1456 1456 1457 1458 1458 1459
1414 1414 1414 1414 1414 1414 1414 1415 1416 1417 1418 1419 1419 1420 1421 1422 1423 1423 1424 1424 1425 1426 1427 1428 1429 1429 1430 1431 1432 1432 1433 1434 1435 1436 1436 1437 1438 1439 1439 1440 1441 1442 1443 1444 1444 1445 1445 1446 1446 1447 1447 1448 1448 1449 1449 1450 1450 1451 1451 1452 1452 1453 1454 1454 1455 1455 1456 1456 1457
1412 1411 1411 1411 1411 1411 1412 1412 1413 1414 1415 1416 1417 1418 1418 1419 1420 1420 1421 1422 1423 1424 1424 1425 1426 1427 1427 1428 1429 1430 1430 1431 1432 1433 1434 1435 1436 1436 1437 1438 1439 1439 1440 1441 1442 1443 1443 1444 1444 1445 1445 1446 1446 1447 1447 1448 1449 1449 1450 1450 1451 1451 1452 1452 1453 1454 1454 1455 1455
1409 1409 1409 1409 1409 1409 1409 1409 1410 1411 1412 1413 1414 1415 1415 1416 1417 1418 1418 1419 1420 1421 1422 1423 1423 1424 1424 1425 1426 1427 1428 1429 1429 1430 1431 1432 1433 1434 1435 1436 1436 1437 1438 1439 1440 1441 1441 1442 1442 1443 1443 1444 1444 1445 1445 1446 1447 1447 1448 1449 1449 1449 1450 1451 1451 1452 1453 1453 1454
1407 1407 1406 1406 1406 1406 1407 1407 1408 1408 1409 1410 1411 1412 1413 1414 1414 1415 1415 1416 1417 1418 1419 1420 1420 1421 1422 1422 1423 1424 1425 1426 1427 1428 1429 1429 1430 1431 1432 1433 1434 1435 1436 1437 1438 1439 1439 1440 1440 1441 1441 1442 1443 1443 1444 1444 1445 1446 1446 1447 1447 1448 1449 1449 1450 1450 1451 1451 1452
1404 1404 1404 1404 1404 1404 1404 1404 1405 1405 1406 1407 1408 1409 1410 1410 1411 1412 1413 1414 1415 1415 1416 1417 1418 1418 1419 1419 1420 1421 1422 1423 1424 1425 1426 1427 1428 1429 1430 1431 1432 1433 1434 1435 1436 1436 1437 1438 1438 1439 1439 1440 1440 1441 1442 1443 1443 1444 1444 1445 1445 1446 1447 1447 1448 1449 1449 1449 1450
1402 1402 1402 1401 1401 1401 1402 1402 1403 1403 1404 1405 1405 1406 1406 1407 1408 1409 1410 1411 1412 1413 1414 1414 1415 1415 1416 1417 1418 1419 1420 1421 1422 1423 1423 1424 1425 1426 1427 1429 1430 1431 1432 1433 1434 1434 1435 1436 1436 1437 1437 1438 1439 1439 1440 1441 1441 1442 1443 1443 1444 1444 1445 1446 1446 1447 1447 1447 1448
1400 1399 1399 1399 1399 1399 1399 1400 1400 1401 1401 1402 1402 1403 1403 1404 1405 1406 1407 1408 1409 1410 1411 1412 1412 1413 1414 1415 1415 1416 1417 1418 1419 1420 1421 1422 1423 1424 1425 1426 1427 1429 1430 1431 1432 1432 1433 1434 1434 1435 1435 1436 1436 1437 1438 1439 1439 1440 1441 1441 1442 1443 1443 1444 1444 1445 1445 1445 1446
1397 1397 1397 1396 1396 1396 1397 1398 1398 1398 1399 1399 1399 1399 1400 1401 1402 1403 1404 1405 1406 1407 1408 1409 1409 1410 1411 1412 1413 1414 1414 1415 1416 1417 1418 1419 1420 1422 1423 1424 1425 1426 1427 1429 1429 1430 1431 1432 1432 1433 1434 1434 1434 1435 1436 1437 1437 1438 1439 1439 1440 1441 1441 1442 1442 1443 1443 1444 1444
1395 1394 1394 1394 1394 1394 1394 1395 1395 1396 1396 1396 1396 1397 1397 1398 1399 1400 1401 1402 1403 1404 1404 1405 1406 1407 1409 1410 1411 1411 1412 1413 1414 1415 1416 1417 1418 1419 1420 1421 1422 1424 1425 1426 1427 1428 1429 1429 1430 1431 1432 1432 1433 1433 1434 1434 1435 1436 1437 1437 1438 1439 1439 1440 1440 1441 1441 1441 1442
1392 1392 1392 1391 1391 1392 1392 1392 1393 1393 1393 1393 1393 1394 1394 1395 1396 1397 1398 1399 1400 1401 1401 1402 1403 1404 1406 1407 1408 1409 1410 1411 1411 1412 1414 1414 1416 1417 1418 1419 1419 1421 1422 1424 1424 1425 1426 1427 1428 1429 1430 1430 1430 1431 1432 1432 1433 1434 1434 1435 1436 1437 1437 1438 1438 1439 1439 1439 1440
1390 1389 1389 1389 1389 1389 1389 1390 1390 1390 1390 1390 1390 1391 1392 1392 1393 1394 1395 1396 1397 1398 1399 1399 1400 1402 1403 1404 1406 1407 1408 1408 1409 1410 1411 1412 1413 1414 1415 1416 1417 1419 1420 1421 1422 1423 1424 1425 1426 1427 1428 1428 1429 1429 1429 1430 1431 1432 1432 1433 1434 1434 1435 1436 1436 1437 1437 1437 1438
1387 1387 1387 1387 1387 1387 1387 1387 1387 1387 1387 1388 1388 1388 1389 1389 1390 1391 1392 1393 1394 1395 1395 1396 1398 1399 1400 1402 1403 1404 1405 1406 1407 1407 1408 1409 1410 1411 1412 1414 1415 1416 1418 1419 1420 1421 1422 1423 1424 1424 1425 1426 1426 1427 1427 1428 1429 1429 1430 1431 1432 1433 1433 1434 1434 1435 1435 1435 1436
1385 1384 1384 1384 1384 1384 1384 1385 1385 1384 1384 1385 1385 1386 1386 1387 1388 1389 1389 1390 1391 1392 1392 1394 1394 1396 1397 1399 1401 1402 1403 1404 1404 1405 1405 1406 1407 1409 1410 1411 1413 1414 1415 1416 1417 1419 1419 1420 1421 1422 1423 1423 1424 1424 1425 1426 1426 1427 1428 1429 1429 1430 1431 1432 1432 1433 1433 1433 1434
1383 1382 1382 1382 1382 1382 1382 1382 1382 1382 1382 1383 1383 1384 1384 1385 1385 1386 1387 1387 1388 1389 1389 1391 1392 1393 1395 1397 1399 1400 1401 1401 1402 1402 1403 1404 1405 1406 1408 1409 1410 1412 1413 1414 1415 1416 1417 1418 1419 1419 1420 1421 1421 1422 1423 1424 1424 1425 1426 1427 1428 1429 1429 1429 1430 1430 1431 1431 1432
1380 1380 1379 1379 1379 1379 1380 1380 1380 1380 1380 1381 1381 1382 1382 1383 1383 1384 1384 1385 1385 1386 1387 1388 1389 1390 1392 1394 1395 1396 1397 1398 1399 1400 1400 1401 1402 1404 1405 1407 1408 1409 1410 1412 1413 1414 1415 1415 1416 1417 1418 1418 1419 1420 1421 1422 1422 1423 1424 1425 1425 1426 1427 1427 1428 1428 1429 1429 1430
1378 1377 1377 1377 1376 1377 1377 1377 1377 1377 1378 1379 1379 1379 1380 1380 1381 1381 1382 1382 1383 1384 1384 1385 1387 1388 1389 1391 1392 1393 1394 1395 1396 1397 1398 1399 1400 1402 1403 1404 1405 1407 1408 1409 1410 1411 1412 1413 1414 1414 1415 1416 1417 1418 1419 1419 1420 1421 1422 1423 1423 1424 1424 1425 1425 1426 1427 1427 1428
1375 1374 1374 1374 1374 1374 1374 1374 1374 1375 1376 1376 1377 1377 1378 1378 1379 1379 1379 1380 1380 1381 1382 1383 1384 1385 1387 1388 1389 1389 1391 1392 1393 1395 1396 1397 1398 1399 1400 1402 1403 1404 1406 1407 1408 1409 1410 1410 1411 1412 1413 1414 1414 1415 1416 1417 1418 1419 1419 1420 1421 1422 1422 1423 1424 1424 1424 1425 1426